Regional Weather Roundup
Issued by NWS Albany, NY

Home | Current Version | Previous Version | Graphics & Text | Print | Product List | Glossary Off
Versions: 1 2 3 4 5 6 7 8 9 10 11 12 13 14 15 16 17 18 19 20 21 22 23 24 25 26 27 28 29 30 31 32 33 34 35 36 37 38 39 40 41 42 43 44 45 46 47 48 49 50

000
ASUS41 KALY 231910
RWRALY

NEW YORK STATE HOURLY WEATHER ROUNDUP
NATIONAL WEATHER SERVICE ALBANY NY
300 PM EDT TUE SEP 23 2014

NOTE: "FAIR" INDICATES FEW OR NO CLOUDS BELOW 12,000 FEET WITH NO
SIGNIFICANT WEATHER AND/OR NO OBSTRUCTIONS TO VISIBILITY.

NYZ032-033-038>043-046>054-057>066-NYZ062>081-232000-
EAST


CITY           SKY/WX    TMP DP  RH WIND       PRES   REMARKS
ALBANY         MOSUNNY   68  49  50 N10       30.31R
GLENS FALLS    CLOUDY    64  48  56 CALM      30.28R
POUGHKEEPSIE   SUNNY     70  42  36 CALM      30.30S
NEWBURGH       SUNNY     68  46  45 VRB6      30.32S
MONTGOMERY     SUNNY     72  44  36 SW7       30.30S
WHITE PLAINS   SUNNY     69  40  34 NW6       30.31S
ISLIP          MOSUNNY   67  47  48 VRB6      30.31S
NEW YORK CITY  MOSUNNY   70  40  33 CALM      30.31S
CENTRAL PARK   SUNNY     70  41  34 CALM      30.34S
$$

NYZ005>009-017-018-044>046-055-056-232000-
CENTRAL


CITY           SKY/WX    TMP DP  RH WIND       PRES   REMARKS
FULTON         SUNNY     67  47  48 W14       30.32R
SYRACUSE       MOSUNNY   68  50  52 SW8       30.32R
ROME           PTSUNNY   64  50  60 W10G16    30.33R
ELMIRA         SUNNY     70  51  51 SW9       30.32S
BINGHAMTON     MOSUNNY   64  48  56 W9        30.34R
MONTICELLO     SUNNY     64  46  52 SW7       30.34S
$$

NYZ026>034-041>043-232000-
NORTH


CITY           SKY/WX    TMP DP  RH WIND       PRES   REMARKS
WATERTOWN      CLOUDY    62  52  69 SW12      30.30R
FORT DRUM      NOT AVBL
MASSENA        CLOUDY    62  53  72 SW7       30.27R
SARANAC LAKE   CLOUDY    51  50  96 SW7       30.27R FOG
PLATTSBURGH    PTSUNNY   65  50  58 VRB7      30.23S
$$

NYZ001>004-010>016-019>021-232000-
WEST


CITY           SKY/WX    TMP DP  RH WIND       PRES   REMARKS
NIAGARA FALLS  MOSUNNY   69  51  52 SW13G18   30.31S
BUFFALO        MOSUNNY   66  51  58 SW17G23   30.33S
DUNKIRK        SUNNY     64  51  62 W13G23    30.36R
JAMESTOWN      SUNNY     63  50  63 NW6       30.35F
WELLSVILLE     MOSUNNY   65  48  54 SW6       30.36R
ROCHESTER      MOSUNNY   70  48  45 W6        30.31S
PENN YAN       SUNNY     70  47  43 SW6       30.33R
$$

             KEY
       WCI = WIND CHILL INDEX
       VSB = VISIBILITY
       HX  = HEAT INDEX
$$



USA.gov is the U.S. government's official web portal to all federal, state and local government web resources and services.